Hickory, NC

7:42 AM EST on January 16, 2018 (GMT -0500)
Hickory Regional

Weather History for KHKY - September, 2012

Change the Weather History Date:

Friday, September 28, 2012

  Actual Average Record
Temperature  
Mean Temperature 71 °F -  
Max Temperature 82 °F 75 °F 94 °F (1954)
Min Temperature 60 °F 54 °F 40 °F (1989)
Cooling Degree Days 6    
Growing Degree Days 21 (Base 50)    
Moisture  
Dew Point 62 °F    
Average Humidity 85    
Maximum Humidity 100    
Minimum Humidity 47    
Precipitation  
Precipitation 0.45 in - - ()
Sea Level Pressure  
Sea Level Pressure 30.04 in    
Wind  
Wind Speed 3 mph (WNW)    
Max Wind Speed 13 mph    
Max Gust Speed 22 mph    
Visibility 6 miles    
Events Fog , Rain , Thunderstorm    
Averages and records for this station are not official NWS values.
T = Trace of Precipitation, MM = Missing Value Source: NWS Daily Summary

Daily Weather History Graph

Daily Weather History Graph

Search for Another Location

Airport or City:

Trip Planner

Search our weather history database for the weather conditions in past years. The results will help you decide how hot, cold, wet, or windy it might be!

Date:

Astronomy

Sep. 28, 2012 Rise Set
Actual Time 7:18 AM EDT 7:12 PM EDT
Civil Twilight 6:53 AM EDT 7:38 PM EDT
Nautical Twilight 6:23 AM EDT 8:07 PM EDT
Astronomical Twilight 5:53 AM EDT 8:37 PM EDT
Moon 6:13 PM EDT (9/28) 5:49 AM EDT (9/28)
Length of Visible Light 12h 45m
Length of Day
11h 54m
Waxing Gibbous, 98% of the Moon is Illuminated
Sep 28
Waxing Gibbous
Sep 29
Full
Oct 8
Last Quarter
Oct 15
New
Oct 21
First Quarter

Hourly Weather History & Observations

Time (EDT) Temp. Heat Index Dew Point Humidity Pressure Visibility Wind Dir Wind Speed Gust Speed Precip Events Conditions
12:53 AM 63.0 °F - 60.1 °F 90% 30.08 in 10.0 mi Calm Calm - N/A   Clear
1:53 AM 64.0 °F - 61.0 °F 90% 30.08 in 10.0 mi WNW 5.8 mph - N/A   Clear
2:53 AM 62.1 °F - 60.1 °F 93% 30.07 in 10.0 mi Calm Calm - N/A   Partly Cloudy
3:53 AM 63.0 °F - 60.1 °F 90% 30.06 in 10.0 mi West 4.6 mph - N/A   Clear
4:53 AM 63.0 °F - 60.1 °F 90% 30.05 in 10.0 mi NW 6.9 mph - N/A   Clear
5:53 AM 62.1 °F - 59.0 °F 90% 30.05 in 10.0 mi West 4.6 mph - N/A   Clear
6:53 AM 60.1 °F - 57.9 °F 93% 30.05 in 8.0 mi West 3.5 mph - N/A   Clear
7:53 AM 61.0 °F - 57.9 °F 90% 30.06 in 7.0 mi Calm Calm - 0.01 in   Clear
8:53 AM 64.0 °F - 60.1 °F 87% 30.07 in 10.0 mi Calm Calm - N/A   Clear
9:53 AM 66.9 °F - 61.0 °F 81% 30.06 in 10.0 mi North 4.6 mph - N/A   Clear
10:53 AM 73.0 °F - 62.1 °F 68% 30.07 in 10.0 mi WNW 3.5 mph - N/A   Clear
11:53 AM 80.1 °F 81.2 °F 62.1 °F 54% 30.06 in 10.0 mi West 6.9 mph - N/A   Clear
12:53 PM 82.0 °F 83.0 °F 62.1 °F 51% 30.04 in 10.0 mi WNW 5.8 mph - N/A   Clear
1:53 PM 81.0 °F 81.7 °F 61.0 °F 50% 30.01 in 10.0 mi SSW 5.8 mph - N/A   Scattered Clouds
2:53 PM 82.9 °F 83.3 °F 61.0 °F 47% 29.97 in 10.0 mi South 9.2 mph - N/A   Scattered Clouds
3:09 PM 75.2 °F - 59.0 °F 57% 30.05 in 10.0 mi North 12.7 mph 21.9 mph N/A Thunderstorm Mostly Cloudy
3:53 PM 71.1 °F - 61.0 °F 70% 29.99 in 10.0 mi North 6.9 mph - N/A Thunderstorm Overcast
4:04 PM 68.0 °F - 62.6 °F 83% 30.05 in 1.8 mi North 6.9 mph - 0.10 in Rain , Thunderstorm Heavy Thunderstorms and Rain
4:19 PM 66.2 °F - 64.4 °F 94% 30.05 in 0.5 mi South 9.2 mph - 0.34 in Fog , Rain , Thunderstorm Heavy Thunderstorms and Rain
4:28 PM 66.2 °F - 62.6 °F 88% 30.05 in 2.0 mi South 6.9 mph - 0.39 in Rain , Thunderstorm Heavy Thunderstorms and Rain
4:37 PM 66.2 °F - 62.6 °F 88% 30.04 in 5.0 mi South 3.5 mph - 0.40 in Rain , Thunderstorm Light Thunderstorms and Rain
4:53 PM 66.0 °F - 64.0 °F 93% 29.99 in 6.0 mi South 4.6 mph - 0.42 in Rain , Thunderstorm Light Rain
5:22 PM 66.2 °F - 64.4 °F 94% 30.03 in 10.0 mi Calm Calm - 0.02 in   Mostly Cloudy
5:53 PM 68.0 °F - 64.9 °F 90% 29.99 in 10.0 mi NNW 4.6 mph - 0.02 in   Mostly Cloudy
6:53 PM 66.0 °F - 64.0 °F 93% 30.00 in 7.0 mi Calm Calm - N/A   Mostly Cloudy
7:53 PM 64.9 °F - 63.0 °F 93% 30.00 in 6.0 mi Calm Calm - N/A   Clear
8:48 PM 66.2 °F - 64.4 °F 94% 30.05 in 8.0 mi North 3.5 mph - N/A   Scattered Clouds
8:53 PM 66.0 °F - 64.0 °F 93% 30.01 in 6.0 mi North 3.5 mph - N/A   Scattered Clouds
9:24 PM 66.2 °F - 64.4 °F 94% 30.05 in 4.0 mi Calm Calm - N/A   Mostly Cloudy
9:53 PM 64.9 °F - 63.0 °F 93% 30.00 in 4.0 mi Calm Calm - N/A   Scattered Clouds
10:11 PM 64.4 °F - 62.6 °F 94% 30.04 in 1.8 mi Calm Calm - N/A   Partly Cloudy
10:26 PM 64.4 °F - 62.6 °F 94% 30.05 in 0.5 mi Calm Calm - N/A Fog Fog
10:34 PM 64.4 °F - 62.6 °F 94% 30.05 in 0.2 mi Calm Calm - N/A Fog Fog
10:53 PM 64.0 °F - 64.0 °F 100% 29.99 in 0.2 mi Calm Calm - N/A Fog Fog
11:18 PM 64.4 °F - 62.6 °F 94% 30.04 in 0.5 mi Calm Calm - N/A Fog Fog
11:37 PM 64.4 °F - 62.6 °F 94% 30.04 in 2.0 mi Calm Calm - N/A   Mostly Cloudy
11:46 PM 64.4 °F - 64.4 °F 100% 30.05 in 3.0 mi Calm Calm - N/A   Mostly Cloudy
11:53 PM 64.0 °F - 63.0 °F 96% 29.99 in 3.0 mi Calm Calm - N/A   Scattered Clouds